Location: Goudex
(43.3760°N, 0.9543°E)
Time: 08:36:11
(UTC+00:00)

COSMOS 2428 - Pass Details

Date: 20 November 2019
Orbit: 844 x 858 km, 70.9° (Epoch: 10 December)

Event Time Altitude Azimuth Distance (km) Brightness Sun altitude
Exits shadow 05:46:56 - 338° (NNW) 3,382 5.5 -12.4°
Reaches altitude 10° 05:49:20 10° 342° (NNW) 2,489 4.8 -12.0°
Maximum altitude 05:54:58 58° 61° (ENE) 994 3.3 -11.0°
Drops below altitude 10° 06:00:35 10° 140° (SE) 2,483 6.1 -10.0°
Sets 06:03:05 0° 145° (SE) 3,416 6.8 -9.6°
